Wetbulb
66.11 66.56 67.12 66.72 67.18 67.71 67.66 67.77 67.52 67.65 67.08 66.81 66.54 66.12 66.23 66.13 66.16 65.88 65.74 65.53 65.47 65.36 64.86 64.73 64.08 63.60 63.01 61.74 61.13 61.11 57.71 58.85
65.17 65.40 65.75 65.87 66.01 66.41 66.36 66.34 66.39 66.16 65.87 65.36 64.68 64.87 65.08 65.37 64.81 65.56 65.68 65.56 65.47 64.89 63.86 64.08 63.17 62.19 61.76 61.41 60.24 58.90 55.98 56.99
64.95 65.10 64.44 65.26 65.24 65.54 65.67 66.18 65.65 64.85 64.54 64.08 62.07 61.28 60.95 61.54 64.05 64.79 65.40 65.17 64.61 63.16 62.03 60.80 59.79 60.27 59.99 59.05 56.78 53.85 54.24 54.72
62.48 63.23 63.12 64.70 64.91 62.93 62.80 63.40 62.00 61.86 61.21 60.36 60.13 60.04 60.72 61.83 63.20 64.54 64.72 63.15 61.86 60.66 59.25 57.64 54.54 51.61 51.40 52.59 49.87 49.29 48.89 49.83
61.79 62.89 63.30 63.05 62.57 61.27 60.64 60.14 60.22 60.35 59.64 59.77 60.38 61.22 60.44 60.97 60.77 60.13 57.38 57.49 54.32 53.53 51.92 50.68 49.83 49.41 47.98 47.20 46.93 46.67 46.09 46.53
59.58 60.19 62.36 62.41 61.62 59.93 59.15 58.91 59.07 59.07 59.49 60.61 60.99 60.45 59.68 57.49 56.93 55.97 54.07 52.71 51.18 50.33 49.24 48.36 47.78 47.61 46.67 45.83 45.30 44.63 44.39 45.01
57.92 58.95 61.83 60.95 59.57 58.44 58.04 58.96 59.62 60.33 60.64 61.73 60.55 59.12 56.21 55.80 53.94 52.76 51.62 50.39 49.05 47.58 46.67 46.19 45.48 45.27 44.75 44.31 43.92 43.53 43.48 43.75
60.54 61.79 60.61 59.98 58.31 58.12 58.73 60.66 61.10 61.21 61.05 60.67 60.12 57.59 55.72 53.91 52.53 51.44 49.96 48.55 47.03 45.94 44.74 43.68 42.91 43.15 42.64 43.12 42.88 42.57 42.18 42.33
60.12 59.89 58.94 59.14 58.49 59.19 59.76 60.41 60.64 60.55 59.99 59.92 58.34 56.77 54.63 52.13 50.88 49.03 48.26 48.70 47.34 45.85 43.85 43.04 42.31 42.73 41.23 41.34 41.80 41.91 41.92 41.79
58.54 61.06 59.76 58.92 58.36 58.71 59.18 59.34 58.58 58.22 57.96 57.90 57.04 54.71 52.28 51.27 51.13 50.22 50.07 48.67 47.23 45.70 43.53 41.67 41.10 40.70 39.93 39.35 40.03 40.95 41.64 41.71
57.74 59.45 57.95 57.43 56.35 56.61 56.85 56.75 57.22 56.41 56.43 55.75 54.41 52.03 51.49 52.42 50.48 48.63 48.78 47.66 46.96 46.28 43.74 41.92 40.23 40.30 41.05 39.51 38.97 39.22 40.59 41.96
58.70 57.59 56.19 55.35 55.07 54.55 54.43 54.41 54.61 54.31 53.22 52.36 51.35 50.95 50.91 50.23 49.63 47.97 47.70 45.99 43.48 42.53 41.64 41.22 40.43 39.69 41.82 40.00 38.39 38.40 38.93 39.44
57.51 56.27 55.57 55.92 55.03 53.03 52.38 52.48 52.08 51.96 52.83 52.45 52.90 51.43 50.17 49.03 47.30 45.73 45.49 44.13 42.33 42.00 41.14 40.20 39.70 38.92 37.88 38.23 37.45 37.98 38.17 38.43
56.91 56.65 55.85 55.82 55.68 53.77 53.41 52.54 51.99 50.84 52.22 51.93 51.65 51.12 49.90 48.18 46.28 44.82 44.21 42.65 41.99 41.56 40.69 39.69 39.06 38.97 37.26 35.38 34.13 36.31 36.92 38.50
57.82 56.89 56.23 55.91 55.40 54.74 53.73 53.46 50.59 49.88 49.67 49.02 49.72 50.20 49.33 47.42 45.93 44.16 42.93 42.52 41.28 40.49 40.30 39.81 38.13 38.61 38.53 37.29 33.27 31.67 33.53 36.64
57.74 57.19 56.57 56.17 56.00 54.66 53.84 52.85 50.31 50.10 49.32 48.54 48.54 49.18 47.96 47.10 45.35 43.58 42.91 42.57 42.67 41.32 43.06 39.68 39.19 37.92 38.55 39.35 37.05 35.99 33.44 32.00
56.43 56.73 56.71 56.83 56.71 55.96 55.34 53.91 50.14 48.82 48.25 48.02 47.26 46.47 46.25 45.24 44.11 43.42 44.74 42.80 42.16 41.24 40.07 39.22 38.88 37.77 36.96 36.53 35.71 34.82 34.05 32.87
55.59 56.31 57.21 56.79 56.61 56.61 55.54 53.04 48.70 47.59 47.20 46.52 45.43 44.78 44.11 44.45 45.33 44.44 41.92 43.30 42.04 39.10 37.83 37.50 37.30 37.14 37.25 36.64 36.24 35.26 34.03 32.72
56.47 56.87 56.47 57.05 56.47 56.95 55.76 51.59 48.60 48.08 47.02 44.95 43.29 43.23 42.52 43.18 44.24 44.28 42.79 41.44 40.04 37.43 36.60 35.90 35.64 35.14 35.37 36.12 36.69 36.66 36.79 35.81
57.07 56.95 56.75 56.13 56.13 56.15 53.17 50.67 49.23 47.72 46.25 43.92 43.59 43.73 44.03 45.09 45.31 43.93 41.35 40.22 37.70 37.72 36.02 35.67 36.06 35.94 35.73 35.68 35.93 36.30 36.60 36.43
MSLP
1015.91 1015.88 1016.31 1016.49 1016.96 1018.04 1018.55 1018.95 1018.56 1019.46 1020.10 1020.22 1020.53 1020.74 1020.95 1021.18 1021.35 1021.45 1021.53 1021.60 1021.51 1021.96 1021.92 1021.88 1021.89 1022.10 1022.40 1022.70 1022.80 1022.83 1022.98 1023.32
1016.34 1016.40 1016.77 1016.83 1017.75 1018.48 1018.81 1018.76 1019.16 1019.87 1020.37 1020.50 1020.88 1021.18 1021.36 1021.59 1021.62 1021.80 1021.98 1021.94 1021.89 1022.11 1022.39 1022.45 1022.59 1022.59 1022.76 1023.17 1023.25 1023.40 1023.53 1023.54
1016.95 1016.98 1017.96 1018.15 1018.43 1018.89 1018.82 1018.81 1019.67 1020.12 1020.50 1020.85 1021.05 1021.45 1021.57 1021.76 1021.91 1022.03 1022.22 1022.03 1022.35 1022.34 1022.84 1022.92 1023.04 1022.98 1023.44 1023.60 1023.73 1023.91 1023.94 1023.80
1016.92 1017.70 1018.55 1018.59 1018.82 1019.39 1019.18 1019.70 1020.24 1020.49 1020.76 1021.16 1021.43 1021.60 1021.60 1021.76 1021.97 1022.25 1022.41 1022.50 1022.86 1022.85 1023.12 1023.51 1023.51 1023.70 1023.97 1024.34 1024.52 1024.64 1024.44 1024.24
1018.01 1018.37 1018.88 1018.72 1019.34 1019.54 1019.56 1020.08 1020.71 1020.78 1020.91 1021.44 1021.78 1021.63 1021.74 1022.19 1022.25 1022.49 1022.86 1023.02 1023.26 1023.41 1023.69 1023.97 1024.11 1024.41 1024.62 1024.95 1025.06 1025.09 1025.04 1024.81
1018.59 1017.92 1018.56 1018.82 1019.33 1019.65 1019.98 1020.26 1020.58 1020.82 1021.21 1021.49 1021.65 1021.87 1022.10 1022.43 1022.80 1022.83 1023.19 1023.52 1023.92 1023.93 1024.30 1024.47 1024.73 1024.78 1025.02 1025.16 1025.44 1025.54 1025.21 1025.09
1018.63 1018.51 1018.53 1019.05 1019.19 1019.63 1020.34 1020.54 1020.67 1021.01 1021.27 1021.40 1021.44 1021.97 1022.54 1022.69 1023.13 1023.35 1023.62 1023.97 1024.12 1024.40 1024.91 1025.15 1025.34 1025.45 1025.50 1025.58 1025.73 1025.74 1025.52 1025.39
1018.74 1018.79 1019.11 1019.10 1019.27 1019.97 1020.29 1020.53 1020.92 1020.97 1021.09 1021.49 1021.69 1022.14 1022.68 1023.05 1023.62 1023.82 1024.12 1024.36 1024.78 1025.02 1025.39 1025.77 1025.99 1025.90 1026.05 1026.27 1026.20 1026.07 1025.84 1025.52
1018.49 1018.91 1018.74 1019.12 1019.36 1019.96 1020.42 1020.66 1020.73 1021.03 1021.46 1021.58 1021.87 1022.50 1022.87 1023.47 1023.76 1023.98 1024.56 1024.68 1024.97 1025.42 1025.79 1025.92 1026.28 1026.40 1026.54 1026.53 1026.25 1026.17 1026.03 1025.95
1018.30 1018.44 1018.83 1019.02 1019.53 1020.12 1020.45 1020.70 1020.97 1021.36 1021.60 1021.90 1022.10 1022.62 1023.04 1023.57 1023.68 1024.10 1024.60 1024.95 1025.14 1025.53 1025.94 1026.49 1026.88 1026.77 1026.80 1026.84 1026.64 1026.50 1026.45 1026.34
1018.20 1018.54 1019.06 1019.57 1019.88 1020.42 1020.79 1020.88 1021.36 1021.69 1021.84 1022.00 1022.38 1022.70 1023.33 1023.29 1023.95 1024.38 1024.64 1025.22 1025.44 1025.61 1026.25 1026.57 1027.04 1027.01 1026.91 1027.03 1027.00 1026.91 1026.75 1026.55
1018.08 1018.56 1019.07 1019.65 1020.18 1020.95 1021.23 1021.44 1021.75 1021.94 1022.01 1022.29 1022.45 1022.93 1023.30 1023.68 1024.11 1024.50 1024.95 1025.51 1025.94 1026.07 1026.51 1026.92 1027.05 1027.18 1027.12 1027.26 1027.30 1027.20 1027.21 1027.06
1018.12 1018.65 1019.20 1019.65 1020.34 1020.95 1021.46 1021.79 1022.06 1022.18 1022.07 1022.39 1022.62 1023.14 1023.35 1023.80 1024.32 1024.71 1025.13 1025.46 1025.92 1026.17 1026.66 1026.96 1027.21 1027.30 1027.49 1027.52 1027.48 1027.45 1027.51 1027.31
1017.93 1018.42 1018.84 1019.38 1019.76 1020.33 1020.73 1021.32 1021.90 1022.04 1022.17 1022.52 1022.96 1023.20 1023.40 1023.94 1024.30 1024.76 1025.25 1025.78 1026.15 1026.44 1026.72 1027.18 1027.35 1027.35 1027.67 1028.01 1028.00 1027.81 1027.47 1027.26
1017.31 1018.00 1018.50 1019.07 1019.75 1020.12 1020.86 1021.50 1021.80 1022.54 1022.72 1022.96 1023.09 1023.18 1023.62 1023.99 1024.42 1024.93 1025.53 1025.78 1026.16 1026.40 1026.56 1026.95 1027.41 1027.60 1027.57 1027.66 1028.04 1028.08 1027.79 1027.27
1016.98 1017.72 1018.46 1019.15 1019.54 1019.96 1020.31 1021.09 1021.85 1022.03 1022.42 1022.72 1023.12 1023.35 1023.75 1024.07 1024.59 1025.07 1025.40 1025.70 1025.84 1026.32 1026.48 1026.81 1027.02 1027.49 1027.54 1027.30 1027.52 1027.81 1028.12 1028.17
1016.81 1017.50 1018.21 1019.03 1019.51 1019.69 1020.22 1021.08 1021.51 1021.79 1022.28 1022.80 1023.23 1023.48 1023.79 1024.25 1024.44 1024.87 1024.90 1025.47 1025.95 1026.07 1026.74 1026.99 1026.97 1027.25 1027.47 1027.53 1027.59 1027.74 1027.97 1028.30
1016.80 1017.22 1017.91 1018.45 1019.19 1019.56 1020.06 1020.58 1021.33 1021.83 1022.25 1022.94 1023.35 1023.79 1024.11 1024.18 1024.52 1024.63 1024.95 1025.47 1025.73 1025.93 1026.51 1026.63 1026.92 1027.02 1027.11 1027.38 1027.49 1027.68 1027.81 1027.96
1016.64 1017.22 1017.57 1018.01 1018.59 1019.11 1019.64 1020.14 1020.65 1021.12 1021.86 1022.62 1023.27 1023.75 1024.10 1024.36 1024.57 1025.13 1025.43 1025.60 1025.82 1025.75 1026.27 1026.57 1026.75 1026.86 1027.00 1027.06 1027.04 1027.17 1027.25 1027.26
1015.97 1016.44 1016.96 1017.51 1018.15 1018.65 1019.21 1019.72 1020.20 1020.68 1021.37 1022.20 1022.73 1023.08 1023.55 1024.28 1024.75 1025.14 1025.22 1025.57 1025.76 1026.00 1026.03 1026.46 1026.50 1026.54 1026.60 1026.63 1026.60 1026.67 1026.80 1026.84
Wind_Speed
7 8 14 15 13 11 10 10 16 12 10 12 12 11 10 11 11 12 12 12 14 15 13 13 13 14 11 12 11 11 6 4
9 10 8 7 7 9 9 13 14 12 11 12 12 11 10 10 10 10 11 12 13 14 17 15 15 16 15 12 12 11 6 5
8 10 10 5 5 5 8 14 13 12 11 12 9 4 6 7 8 10 10 12 14 17 17 16 16 17 16 14 12 4 4 4
9 10 11 5 5 4 6 6 5 5 6 6 4 5 5 5 7 10 11 16 16 17 16 15 12 7 6 11 4 5 5 4
2 5 6 6 4 3 3 4 3 4 6 5 4 3 4 3 3 4 5 10 5 8 8 6 9 6 6 5 5 5 3 3
5 3 2 4 4 3 3 3 3 3 4 6 4 3 4 4 4 5 5 4 6 6 5 6 8 8 7 6 6 4 3 3
19 10 3 3 5 4 3 3 4 4 4 4 4 4 4 5 5 4 5 5 5 6 5 5 6 7 6 7 7 6 6 3
13 9 6 5 5 5 4 3 3 3 4 4 5 5 5 5 5 5 5 5 4 5 5 5 5 5 6 5 5 4 5 6
7 7 6 6 7 5 3 3 4 4 3 5 7 5 6 6 5 5 4 5 7 5 5 5 5 3 5 4 4 5 5 6
4 6 7 7 6 4 3 4 4 4 4 4 7 6 7 5 6 5 4 4 4 4 4 4 3 3 2 4 4 4 5 5
7 7 7 7 6 5 4 5 4 3 3 5 6 7 6 6 5 4 5 4 4 3 3 3 2 2 2 4 3 3 2 3
7 6 7 7 5 5 3 4 3 3 4 4 7 5 6 6 5 5 5 4 4 3 3 3 2 2 2 3 1 1 2 2
9 10 8 8 5 4 3 3 2 2 3 6 6 6 6 6 4 5 4 5 4 3 3 2 2 2 2 3 2 2 1 2
8 9 11 8 6 3 3 4 2 2 3 4 5 6 6 6 6 5 5 4 5 3 2 1 1 1 2 1 2 3 2 3
13 12 12 10 7 5 4 3 4 3 1 2 4 6 6 6 6 5 5 4 4 2 3 3 2 2 3 3 1 3 2 2
10 10 11 7 8 6 8 4 5 4 4 3 4 5 5 6 6 6 6 3 4 2 2 2 3 2 2 2 1 3 3 4
9 9 10 8 9 8 7 5 3 3 3 6 5 5 6 6 7 6 5 5 3 5 3 3 2 2 2 1 1 0 2 3
8 11 11 10 9 8 9 8 7 5 5 5 4 3 4 5 4 5 6 4 4 5 4 4 3 3 2 3 3 3 2 3
7 11 12 11 12 10 9 8 8 9 7 6 7 4 3 5 5 4 2 4 4 5 4 3 3 2 3 3 3 3 3 3
13 13 12 12 12 10 7 7 5 5 7 7 6 5 6 4 4 2 4 4 4 4 2 3 4 4 5 4 2 3 3 3
Wind_Direction
89 99 112 127 115 100 125 146 105 110 111 103 105 108 102 94 86 84 78 71 71 79 80 81 77 87 100 90 85 86 79 65
95 94 107 101 108 137 142 111 105 115 116 109 99 97 97 91 85 84 77 76 71 71 78 78 71 68 75 76 69 61 54 51
126 141 115 108 96 141 119 111 123 116 111 108 97 105 101 95 104 95 88 79 75 78 80 81 75 66 63 63 58 41 45 49
79 105 140 139 120 111 93 95 87 110 108 104 106 116 118 113 103 88 84 88 80 78 74 72 70 66 64 58 55 37 36 31
342 132 176 128 116 109 97 104 116 111 114 117 130 119 106 105 77 76 82 75 69 66 64 57 63 68 65 59 49 48 30 29
134 222 179 152 131 104 104 117 131 126 140 147 137 104 89 81 90 87 87 74 83 76 69 65 68 62 63 67 57 47 37 25
153 195 257 134 101 110 130 157 148 153 156 150 129 109 110 100 86 83 88 83 81 77 72 72 64 60 56 59 48 37 33 19
183 203 174 140 129 141 162 142 145 131 127 135 105 114 114 98 100 91 83 84 76 80 80 78 73 67 57 51 60 49 42 29
186 176 153 150 144 141 137 153 131 125 123 112 118 109 107 121 114 95 98 100 91 94 79 69 64 58 77 66 55 50 45 35
167 147 158 136 138 143 152 136 119 115 115 114 117 118 121 117 115 115 118 106 105 91 93 77 81 67 45 44 52 56 58 43
158 149 150 134 120 121 120 114 104 108 126 119 122 118 129 120 118 119 113 106 104 116 71 104 73 45 52 55 42 60 54 44
137 128 130 123 107 108 88 91 114 137 123 124 124 128 131 124 124 126 125 116 107 88 104 58 94 42 355 26 359 346 345 49
155 145 152 142 142 134 119 148 153 134 134 136 133 139 131 126 129 128 131 114 132 128 107 107 47 43 48 343 343 315 299 338
157 165 164 166 161 142 141 140 142 105 122 133 150 150 144 145 135 130 123 117 111 91 88 93 90 145 137 119 1 325 286 240
177 177 172 167 151 117 89 77 62 81 113 148 171 155 150 127 118 121 118 116 129 147 138 145 159 255 224 147 43 242 326 317
173 167 171 161 150 141 151 162 167 185 171 143 131 120 113 121 120 124 135 138 135 141 139 141 136 209 292 215 231 145 224 316
162 156 163 170 173 159 164 182 168 144 130 135 121 115 122 135 142 145 118 112 138 125 137 148 149 157 181 259 264 309 216 226
160 164 175 168 177 176 185 182 171 143 136 135 123 119 135 122 118 104 135 143 154 135 151 147 170 184 184 200 194 197 234 216
183 179 183 183 181 186 191 194 174 160 153 143 149 142 137 130 120 116 124 159 171 146 158 169 185 181 191 202 187 210 199 214
189 195 190 177 187 190 188 171 162 151 146 148 154 153 144 131 73 118 177 169 162 179 146 184 184 181 182 199 217 252 229 216